Imperial, CA

1:49 AM PDT on October 17, 2017 (GMT -0700)
Imperial County

Weather History for KIPL - May, 2013

Change the Weather History Date:

Thursday, May 23, 2013

  Actual Average Record
Temperature  
Mean Temperature 80 °F -  
Max Temperature 95 °F 96 °F 111 °F (2001)
Min Temperature 68 °F 65 °F 55 °F (2008)
Cooling Degree Days 16    
Growing Degree Days 30 (Base 50)    
Moisture  
Dew Point 23 °F    
Average Humidity 13    
Maximum Humidity 26    
Minimum Humidity 5    
Precipitation  
Precipitation 0.00 in - - ()
Sea Level Pressure  
Sea Level Pressure 29.71 in    
Wind  
Wind Speed 12 mph (West)    
Max Wind Speed 23 mph    
Max Gust Speed 33 mph    
Visibility 10 miles    
Events      
Averages and records for this station are not official NWS values.
T = Trace of Precipitation, MM = Missing Value Source: NWS Daily Summary

Daily Weather History Graph

Daily Weather History Graph

Search for Another Location

Airport or City:

Trip Planner

Search our weather history database for the weather conditions in past years. The results will help you decide how hot, cold, wet, or windy it might be!

Date:

Astronomy

May. 23, 2013 Rise Set
Actual Time 5:38 AM PDT 7:40 PM PDT
Civil Twilight 5:10 AM PDT 8:07 PM PDT
Nautical Twilight 4:37 AM PDT 8:41 PM PDT
Astronomical Twilight 4:01 AM PDT 9:17 PM PDT
Moon 6:21 PM PDT (5/23) 4:21 AM PDT (5/23)
Length of Visible Light 14h 57m
Length of Day
14h 01m
Waxing Gibbous, 97% of the Moon is Illuminated
May 23
Waxing Gibbous
May 24
Full
May 31
Last Quarter
Jun 8
New
Jun 16
First Quarter

Hourly Weather History & Observations

Time (PDT) Temp. Dew Point Humidity Pressure Visibility Wind Dir Wind Speed Gust Speed Precip Events Conditions
12:53 AM 72.0 °F 21.9 °F 15% 29.67 in 10.0 mi Calm Calm - N/A   Clear
1:53 AM 71.1 °F 24.1 °F 17% 29.66 in 10.0 mi WNW 10.4 mph 21.9 mph N/A   Clear
2:53 AM 72.0 °F 17.1 °F 12% 29.67 in 10.0 mi West 18.4 mph - N/A   Clear
3:53 AM 71.1 °F 23.0 °F 16% 29.66 in 10.0 mi West 23.0 mph 29.9 mph N/A   Clear
4:53 AM 69.1 °F 28.0 °F 22% 29.68 in 10.0 mi West 17.3 mph - N/A   Clear
5:53 AM 68.0 °F 28.0 °F 22% 29.69 in 10.0 mi West 12.7 mph - N/A   Clear
6:53 AM 72.0 °F 21.0 °F 15% 29.71 in 10.0 mi West 12.7 mph - N/A   Clear
7:53 AM 78.1 °F 9.0 °F 7% 29.72 in 10.0 mi West 19.6 mph 26.5 mph N/A   Clear
8:53 AM 82.9 °F 5.0 °F 5% 29.74 in 10.0 mi West 13.8 mph - N/A   Clear
9:53 AM 84.0 °F 10.9 °F 6% 29.75 in 10.0 mi SW 6.9 mph - N/A   Clear
10:53 AM 84.9 °F 12.0 °F 7% 29.75 in 10.0 mi South 5.8 mph - N/A   Clear
11:53 AM 91.0 °F 12.9 °F 6% 29.74 in 10.0 mi WSW 9.2 mph - N/A   Clear
12:53 PM 93.0 °F 12.9 °F 5% 29.72 in 10.0 mi SSW 10.4 mph 17.3 mph N/A   Clear
1:53 PM 93.9 °F 19.0 °F 7% 29.71 in 10.0 mi WSW 18.4 mph 23.0 mph N/A   Clear
2:53 PM 93.9 °F 25.0 °F 8% 29.70 in 10.0 mi West 18.4 mph 27.6 mph N/A   Clear
3:53 PM 93.0 °F 28.9 °F 10% 29.68 in 10.0 mi West 21.9 mph 28.8 mph N/A   Clear
4:53 PM 91.0 °F 33.1 °F 13% 29.68 in 10.0 mi West 20.7 mph 32.2 mph N/A   Clear
5:53 PM 88.0 °F 30.0 °F 12% 29.67 in 10.0 mi West 20.7 mph 33.4 mph N/A   Clear
6:53 PM 82.9 °F 23.0 °F 11% 29.69 in 10.0 mi West 16.1 mph 25.3 mph N/A   Clear
7:53 PM 79.0 °F 26.1 °F 14% 29.71 in 10.0 mi WNW 16.1 mph 25.3 mph N/A   Clear
8:53 PM 75.9 °F 30.9 °F 19% 29.73 in 10.0 mi West 21.9 mph 31.1 mph N/A   Clear
9:53 PM 73.0 °F 33.1 °F 23% 29.75 in 10.0 mi West 12.7 mph - N/A   Clear
10:53 PM 73.0 °F 35.1 °F 25% 29.75 in 10.0 mi West 12.7 mph 24.2 mph N/A   Clear
11:53 PM 71.1 °F 34.0 °F 26% 29.75 in 10.0 mi West 12.7 mph - N/A   Clear